Location: Monrovia
(34.7865°N, 86.7139°W)
Time: 21:46:34
(UTC+00:00)

Cosmos 1408 - Pass Details

Date: 14 July 2020
Orbit: 471 x 493 km, 82.6° (Epoch: 08 August)

Event Time Altitude Azimuth Distance (km) Brightness Sun altitude
Exits shadow 03:30:34 49° 348° (NNW) 615 3.3 -24.3°
Drops below altitude 10° 03:33:18 10° 3° (N) 1,637 5.9 -24.6°
Sets 03:35:24 0° 5° (N) 2,519 6.9 -24.9°
